This is the latest recevied weather packets stored in our database for station/object KD0SBN-3. If no packets are shown the sender has not sent any weather packets the latest 10 day(s).
| Time | Temp. | Humidity | Pressure | Rain* | Wind** | Luminosity | Snow |
|---|---|---|---|---|---|---|---|
| 1777917161 | 12.78° C | 32% | 1022 hPa | 0 mm | - | 374 W/m² | - |
| 1777916859 | 12.78° C | 32% | 1021.7 hPa | 0 mm | - | 361 W/m² | - |
| 1777916557 | 12.78° C | 33% | 1022 hPa | 0 mm | - | 298 W/m² | - |
| 1777916253 | 12.78° C | 33% | 1022.1 hPa | 0 mm | - | 306 W/m² | - |
| 1777915950 | 12.22° C | 31% | 1022.1 hPa | 0 mm | - | 331 W/m² | - |
| 1777915647 | 12.22° C | 32% | 1022.4 hPa | 0 mm | - | 350 W/m² | - |
| 1777915343 | 12.78° C | 33% | 1022 hPa | 0 mm | - | 350 W/m² | - |
| 1777915040 | 12.78° C | 34% | 1022.4 hPa | 0 mm | - | 333 W/m² | - |
| 1777914737 | 12.78° C | 34% | 1022.3 hPa | 0 mm | - | 344 W/m² | - |
| 1777914434 | 12.78° C | 35% | 1022.4 hPa | 0 mm | - | 319 W/m² | - |
| 1777914131 | 12.22° C | 35% | 1022.5 hPa | 0 mm | - | 298 W/m² | - |
| 1777913827 | 12.78° C | 34% | 1022.5 hPa | 0 mm | - | 265 W/m² | - |
| 1777913523 | 12.22° C | 35% | 1022.5 hPa | 0 mm | - | 258 W/m² | - |
| 1777913220 | 11.67° C | 35% | 1022.4 hPa | 0 mm | - | 270 W/m² | - |
| 1777912916 | 12.22° C | 35% | 1022.1 hPa | 0 mm | - | 261 W/m² | - |
| 1777912613 | 11.67° C | 37% | 1022.3 hPa | 0 mm | - | 252 W/m² | - |
| 1777912310 | 11.67° C | 36% | 1022 hPa | 0 mm | - | 248 W/m² | - |
| 1777912005 | 11.11° C | 37% | 1022.3 hPa | 0 mm | - | 261 W/m² | - |
| 1777911702 | 11.67° C | 36% | 1022.4 hPa | 0 mm | - | 256 W/m² | - |
| 1777911398 | 11.67° C | 37% | 1022.3 hPa | 0 mm | - | 261 W/m² | - |
| 1777911096 | 11.67° C | 38% | 1022.4 hPa | 0 mm | - | 261 W/m² | - |
| 1777910793 | 11.67° C | 37% | 1022.1 hPa | 0 mm | - | 258 W/m² | - |
| 1777910489 | 11.11° C | 38% | 1022.3 hPa | 0 mm | - | 279 W/m² | - |
| 1777910186 | 11.11° C | 39% | 1022.3 hPa | 0 mm | - | 314 W/m² | - |
| 1777909884 | 11.11° C | 39% | 1022.4 hPa | 0 mm | - | 278 W/m² | - |
* Rain latest hour (hover to see other rain measurements)
** Current wind speed in m/s (hover to see current wind gust speed)